Massena, NY

3:48 PM EST on December 06, 2019 (GMT -0500)
Massena International-Richards

Weather History for KMSS - October, 2019

Change the Weather History Date:

Thursday, October 17, 2019

  Actual Average Record
Temperature  
Mean Temperature 49 °F 46 °F  
Max Temperature 50 °F 56 °F 77 °F (1968)
Min Temperature 47 °F 36 °F 20 °F (1978)
Degree Days  
Heating Degree Days 16 19  
Month to date heating degree days 265 277  
Since 1 July heating degree days 480 577  
Cooling Degree Days 0 0  
Month to date cooling degree days 0 0  
Year to date cooling degree days 398 361  
Moisture  
Dew Point 44 °F    
Average Humidity 88    
Maximum Humidity 93    
Minimum Humidity 83    
Precipitation  
Precipitation 1.56 in 0.10 in 1.56 in (2019)
Month to date precipitation 3.44 1.86  
Year to date precipitation 27.15 28.05  
Sea Level Pressure  
Sea Level Pressure 29.39 in    
Wind  
Wind Speed 13 mph (NNW)    
Max Wind Speed 24 mph    
Max Gust Speed 32 mph    
Visibility 8 miles    
Events Rain    
T = Trace of Precipitation, MM = Missing Value Source: NWS Daily Summary

Daily Weather History Graph

Daily Weather History Graph

Search for Another Location

Airport or City:

Astronomy

Oct. 17, 2019 Rise Set
Actual Time 7:17 AM EDT 6:11 PM EDT
Civil Twilight 6:47 AM EDT 6:41 PM EDT
Nautical Twilight 6:13 AM EDT 7:15 PM EDT
Astronomical Twilight 5:39 AM EDT 7:48 PM EDT
Moon 8:33 PM EDT (10/17) 10:54 AM EDT (10/17)
Length of Visible Light 11h 53m
Length of Day
10h 54m
Waning Gibbous, 87% of the Moon is Illuminated
Oct 17
Waning Gibbous
Oct 21
Last Quarter
Oct 27
New
Nov 4
First Quarter
Nov 12
Full

Hourly Weather History & Observations

Time (EDT) Temp. Dew Point Humidity Pressure Visibility Wind Dir Wind Speed Gust Speed Precip Events Conditions
12:53 AM 50.0 °F 46.9 °F 89% 29.43 in 6.0 mi East 12.7 mph - 0.07 in Rain Light Rain
1:01 AM 50.0 °F 48.0 °F 93% 29.42 in 6.0 mi East 11.5 mph - 0.01 in Rain Light Rain
1:53 AM 50.0 °F 46.9 °F 89% 29.42 in 6.0 mi ENE 15.0 mph - 0.12 in Rain Rain
2:53 AM 48.9 °F 46.9 °F 93% 29.39 in 7.0 mi NE 13.8 mph - 0.15 in Rain Rain
3:28 AM 48.9 °F 46.0 °F 90% 29.37 in 6.0 mi NE 11.5 mph 21.9 mph 0.07 in Rain Rain
3:43 AM 48.9 °F 46.0 °F 90% 29.36 in 8.0 mi NE 15.0 mph - 0.09 in Rain Rain
3:53 AM 48.9 °F 46.0 °F 90% 29.36 in 6.0 mi NE 13.8 mph - 0.12 in Rain Rain
4:53 AM 48.9 °F 45.0 °F 86% 29.32 in 10.0 mi NE 16.1 mph - 0.04 in Rain Light Rain
5:53 AM 48.0 °F 45.0 °F 89% 29.31 in 10.0 mi NNE 16.1 mph 21.9 mph 0.02 in Rain Light Rain
6:53 AM 48.0 °F 45.0 °F 89% 29.27 in 9.0 mi NNE 18.4 mph 29.9 mph 0.10 in Rain Light Rain
7:40 AM 46.9 °F 43.0 °F 86% 29.25 in 8.0 mi NNE 21.9 mph 28.8 mph 0.05 in Rain Rain
7:53 AM 46.9 °F 43.0 °F 86% 29.25 in 5.0 mi NNE 13.8 mph 23.0 mph 0.09 in Rain Rain
8:53 AM 46.9 °F 43.0 °F 86% 29.26 in 6.0 mi NNE 15.0 mph 26.5 mph 0.23 in Rain Rain
9:26 AM 46.9 °F 43.0 °F 86% 29.25 in 5.0 mi North 13.8 mph 21.9 mph 0.09 in Rain Rain
10:00 AM 46.9 °F 43.0 °F 86% 29.25 in 6.0 mi North 15.0 mph 21.9 mph 0.02 in Rain Rain
10:27 AM 46.9 °F 43.0 °F 86% 29.25 in 6.0 mi North 12.7 mph 25.3 mph 0.08 in Rain Rain
10:53 AM 46.9 °F 44.1 °F 90% 29.27 in 5.0 mi North 10.4 mph 19.6 mph 0.15 in Rain Rain
11:24 AM 46.9 °F 44.1 °F 90% 29.25 in 6.0 mi NW 15.0 mph 24.2 mph 0.12 in Rain Rain
11:53 AM 48.0 °F 44.1 °F 86% 29.26 in 6.0 mi NNW 12.7 mph - 0.16 in Rain Light Rain
12:36 PM 48.0 °F 44.1 °F 86% 29.26 in 7.0 mi NW 15.0 mph 25.3 mph 0.00 in Rain Light Rain
12:48 PM 48.2 °F 44.6 °F 87% 29.26 in 7.0 mi NNW 13.8 mph 24.2 mph 0.01 in Rain Light Rain
12:53 PM 48.0 °F 44.1 °F 86% 29.27 in 7.0 mi NNW 15.0 mph 25.3 mph 0.01 in Rain Light Rain
1:53 PM 48.0 °F 44.1 °F 86% 29.29 in 8.0 mi NNW 10.4 mph 21.9 mph 0.02 in Rain Light Rain
2:53 PM 48.0 °F 44.1 °F 86% 29.33 in 7.0 mi NNW 11.5 mph - 0.04 in Rain Light Rain
3:21 PM 48.0 °F 44.1 °F 86% 29.33 in 9.0 mi NNW 13.8 mph 21.9 mph 0.02 in Rain Light Rain
3:53 PM 48.0 °F 44.1 °F 86% 29.35 in 10.0 mi NNW 9.2 mph 26.5 mph 0.03 in Rain Light Rain
4:31 PM 48.9 °F 44.1 °F 83% 29.36 in 10.0 mi NNW 12.7 mph 21.9 mph 0.00 in   Overcast
4:53 PM 48.9 °F 44.1 °F 83% 29.38 in 10.0 mi NNW 15.0 mph 24.2 mph 0.00 in   Overcast
5:53 PM 48.0 °F 44.1 °F 86% 29.42 in 10.0 mi NW 11.5 mph - 0.01 in Rain Light Rain
6:03 PM 48.0 °F 44.1 °F 86% 29.41 in 9.0 mi NW 8.1 mph - 0.00 in Rain Light Rain
6:37 PM 48.0 °F 44.1 °F 86% 29.43 in 10.0 mi NW 9.2 mph - 0.02 in Rain Light Rain
6:53 PM 48.0 °F 44.1 °F 86% 29.46 in 7.0 mi NW 6.9 mph - 0.04 in Rain Rain
7:19 PM 48.9 °F 45.0 °F 86% 29.46 in 9.0 mi NW 10.4 mph - 0.01 in Rain Light Rain
7:53 PM 48.9 °F 44.1 °F 83% 29.48 in 10.0 mi NW 11.5 mph 18.4 mph 0.03 in Rain Light Rain
8:05 PM 48.9 °F 45.0 °F 86% 29.48 in 10.0 mi WNW 11.5 mph - 0.00 in Rain Light Rain
8:53 PM 48.9 °F 45.0 °F 86% 29.52 in 8.0 mi NW 13.8 mph - 0.02 in Rain Light Rain
9:18 PM 48.9 °F 45.0 °F 86% 29.52 in 10.0 mi WNW 13.8 mph - 0.02 in Rain Light Rain
9:53 PM 48.0 °F 45.0 °F 89% 29.54 in 10.0 mi WNW 13.8 mph - 0.03 in Rain Light Rain
10:15 PM 48.0 °F 44.1 °F 86% 29.54 in 10.0 mi WNW 13.8 mph 25.3 mph 0.01 in Rain Light Rain
10:22 PM 48.0 °F 44.1 °F 86% 29.55 in 10.0 mi WNW 13.8 mph 21.9 mph 0.01 in Rain Light Rain
10:48 PM 48.2 °F 44.6 °F 87% 29.56 in 10.0 mi WNW 11.5 mph - 0.01 in Rain Light Rain
10:53 PM 48.0 °F 44.1 °F 86% 29.57 in 10.0 mi West 11.5 mph - 0.02 in Rain Light Rain
11:14 PM 46.9 °F 44.1 °F 90% 29.57 in 10.0 mi West 10.4 mph - 0.00 in Rain Light Rain
11:26 PM 46.9 °F 43.0 °F 86% 29.57 in 10.0 mi WNW 11.5 mph - 0.00 in Rain Light Rain
11:53 PM 46.9 °F 42.1 °F 83% 29.59 in 10.0 mi WNW 17.3 mph 27.6 mph 0.00 in Rain Light Rain